Location: Oberstdorf
(47.4188°N, 10.2969°E)
Time: 02:46:36
(UTC+01:00)

N. Korean satellite - Visible Passes

Search period start: 21 February 2018 00:00
Search period end: 03 March 2018 00:00
Orbit: 459 x 514 km, 97.2° (Epoch: 20 February)

Date Brightness Start Highest point End Pass type
(mag) Time Alt. Az. Time Alt. Az. Time Alt. Az.
21 Feb 9.5 06:19:42 10° NE 06:22:43 24° E 06:25:45 10° SSE visible
21 Feb 8.1 18:32:01 10° S 18:35:18 41° W 18:38:38 10° NNW visible
22 Feb 10.3 05:56:57 10° ENE 05:58:47 13° E 06:00:38 10° ESE visible
23 Feb 10.2 19:20:07 10° WSW 19:21:37 12° W 19:23:07 10° WNW visible
24 Feb 9.4 18:54:52 10° SSW 18:57:38 22° W 19:00:29 10° NW visible
25 Feb 9.6 06:18:13 10° NE 06:21:14 23° E 06:24:15 10° SSE visible
25 Feb 8.0 18:30:27 10° S 18:33:46 42° W 18:37:09 10° NNW visible
26 Feb 10.4 05:55:28 10° ENE 05:57:16 13° E 05:59:05 10° ESE visible
27 Feb 10.2 19:18:23 10° WSW 19:20:03 13° W 19:21:43 10° WNW visible
28 Feb 9.4 18:53:13 10° SSW 18:56:05 23° W 18:59:00 10° NW visible
01 Mar 9.7 06:16:40 10° NE 06:19:40 23° E 06:22:42 10° SSE visible
01 Mar 8.0 18:28:49 10° S 18:32:11 44° W 18:35:38 10° NNW visible
02 Mar 10.4 05:53:58 10° ENE 05:55:44 13° E 05:57:28 10° ESE visible
